User: anonymous   Login
Location: Unspecified
(43.0000°N, 0.0000°E)
Time: 05:32:43
(UTC+00:00)
Language:

Gurwin Techsat 1B - Orbit

View from above orbital plane
View from above orbital plane
View from above satellite
View from above satellite

Ground track
Ground track

The orbit data is extracted from the following two-line orbital elements,

1 25397U 98043D   19228.79599404 -.00000026 +00000-0 +79312-5 0  9995
2 25397 098.6906 168.2315 0000849 164.5807 195.5398 14.23668949096067
Epoch (UTC): 16 August 2019 19:06:13
Eccentricity: 0.0000849
inclination: 98.6906°
perigee height: 812 km
apogee height: 813 km
right ascension of ascending node: 168.2315°
argument of perigee: 164.5807°
revolutions per day: 14.23668949
mean anomaly at epoch: 195.5398°
orbit number at epoch: 9606

The dashed part of the orbit path shows where the satellite is in the earth's shadow,  

DLR